星链-35065 (STARLINK-35065)

导读 | 豆包AI

STARLINK-35065是美国太空探索技术公司(SpaceX)星链星座的成员卫星,于2025年9月3日发射。星链项目旨在构建全球卫星互联网星座,为全球偏远地区、海洋上空等缺乏地面网络覆盖的区域提供高速宽带互联网接入服务,该卫星入轨后将承担相应的通信服务任务,助力星链星座完成全球覆盖组网。

Basic Information
目录编号:
65441
目录名称:
STARLINK-35065
国际标识:
2025-194H
轨道中心:
EARTH
卫星名称:
星链-35065
卫星全名:
星链-35065 (STARLINK-35065)
卫星状态:
在轨 (已飞行238 天)
发射日期:
2025-09-03 UTC
国别 :
美国 (US)
星等 :
--
Orbit Information
数据来源 国际轨道数据 AOE轨道数据
星历时间 2026-04-29T10:59:45+0800
7小时前
查看轨道信息
2026-04-26T23:00:00+0800
2天前
查看轨道信息
半长轴 6927.681km 6927.677km
偏心率 0.0002719 0.0002334
轨道倾角 97.558° 97.571°
近地点辐角 92.315° 78.721°
升交点赤经 334.022° 331.567°
平近点角 267.839° 60.073°
近地点 547.66km 547.923km
远地点 551.428km 551.157km
周期 95.640分钟 95.640分钟
每日圈数 15.056396 15.056406
Detailed Information
固有亮度:
5
最大亮度:
2.5
卫星平台:
Starlink V1.0
覆盖范围:
全球
运营商:
太空探索技术公司
运营商所在国:
美国
制造商(研发单位):
太空探索技术公司
制造商所在国:
美国
使用方式:
暂无
Satellite Introduction
Starlink 计划是 SpaceX 推出的全球卫星互联网项目,通过发射低轨道卫星,为全球尤其是偏远地区提供高速、低延迟的互联网服务。自 2019 年起,Starlink 已部署数千颗卫星,旨在缩小全球数字鸿沟,推动互联网普及。该项目还为军事、航空等行业提供通信支持,带来广泛经济效益。
2D Orbit Map
3D Orbit Map
Orbit Altitude Analysis Chart
Orbit Inclination Analysis Chart
Orbit Comprehensive Analysis Chart
View Comprehensive Chart